Casa Grande, AZ

4:53 PM MST on November 21, 2019 (GMT -0700)
Casa Grande Municipal

Weather History for KCGZ - September, 2019

Change the Weather History Date:

Saturday, September 14, 2019

  Actual Average Record
Temperature  
Mean Temperature 92 °F -  
Max Temperature 102 °F 96 °F 109 °F (2000)
Min Temperature 82 °F 69 °F 62 °F (2005)
Cooling Degree Days 27    
Growing Degree Days 42 (Base 50)    
Moisture  
Dew Point 56 °F    
Average Humidity 34    
Maximum Humidity 40    
Minimum Humidity 22    
Precipitation  
Precipitation 0.00 in - - ()
Sea Level Pressure  
Sea Level Pressure 29.91 in    
Wind  
Wind Speed 9 mph ()    
Max Wind Speed 36 mph    
Max Gust Speed 44 mph    
Visibility 9.5 miles    
Events Thunderstorm    
Averages and records for this station are not official NWS values.
T = Trace of Precipitation, MM = Missing Value Source: Averaged Metar Reports

Daily Weather History Graph

Daily Weather History Graph

Search for Another Location

Airport or City:

Astronomy

Sep. 14, 2019 Rise Set
Actual Time 6:09 AM MST 6:34 PM MST
Civil Twilight 5:45 AM MST 6:59 PM MST
Nautical Twilight 5:16 AM MST 7:28 PM MST
Astronomical Twilight 4:46 AM MST 7:58 PM MST
Moon 7:17 PM MST (9/14) 6:29 AM MST (9/14)
Length of Visible Light 13h 14m
Length of Day
12h 24m
Full, 100% of the Moon is Illuminated
Sep 14
Full
Sep 21
Last Quarter
Sep 28
New
Oct 5
First Quarter
Oct 13
Full

Hourly Weather History & Observations

Time (MST) Temp. Heat Index Dew Point Humidity Pressure Visibility Wind Dir Wind Speed Gust Speed Precip Events Conditions
12:56 AM 82.9 °F - 45.0 °F 26% 29.88 in 10.0 mi Calm Calm - N/A   Clear
1:56 AM 89.1 °F 87.3 °F 55.9 °F 32% 29.88 in 10.0 mi South 5.8 mph - N/A   Clear
2:56 AM 82.9 °F 82.0 °F 55.0 °F 38% 29.88 in 10.0 mi East 5.8 mph - N/A   Clear
3:56 AM 84.0 °F 83.3 °F 57.0 °F 40% 29.89 in 10.0 mi East 12.7 mph - N/A   Clear
4:56 AM 84.0 °F 83.3 °F 57.0 °F 40% 29.91 in 10.0 mi ESE 8.1 mph - N/A   Clear
5:56 AM 84.9 °F 83.7 °F 55.9 °F 37% 29.92 in 10.0 mi East 9.2 mph - N/A   Clear
6:56 AM 84.0 °F 83.0 °F 55.9 °F 38% 29.94 in 10.0 mi SSE 8.1 mph - N/A   Clear
7:56 AM 84.9 °F 83.9 °F 57.0 °F 38% 29.96 in 10.0 mi ENE 4.6 mph - N/A   Clear
8:56 AM 89.1 °F 87.3 °F 55.9 °F 32% 29.97 in 10.0 mi SE 6.9 mph - N/A   Clear
9:56 AM 91.9 °F 90.6 °F 57.0 °F 31% 29.96 in 10.0 mi Variable 5.8 mph - N/A   Clear
10:56 AM 93.9 °F 92.2 °F 55.9 °F 28% 29.95 in 10.0 mi ENE 6.9 mph - N/A   Clear
11:56 AM 97.0 °F 95.7 °F 57.0 °F 26% 29.92 in 10.0 mi NNE 9.2 mph - N/A   Clear
12:56 PM 97.0 °F 95.3 °F 55.9 °F 25% 29.90 in 10.0 mi Calm Calm - N/A   Clear
1:56 PM 98.1 °F 96.4 °F 55.0 °F 24% 29.86 in 10.0 mi Calm Calm - N/A   Clear
2:56 PM 102.0 °F 101.1 °F 55.9 °F 22% 29.83 in 10.0 mi SE 9.2 mph - N/A   Clear
3:56 PM 99.0 °F 97.3 °F 55.0 °F 23% 29.83 in 10.0 mi ESE 12.7 mph 19.6 mph N/A   Mostly Cloudy
4:23 PM 95.0 °F 94.4 °F 59.0 °F 30% 29.89 in 1.8 mi ENE 35.7 mph 43.7 mph N/A   Haze
4:32 PM 91.4 °F 92.1 °F 62.6 °F 38% 29.90 in 3.0 mi ENE 33.4 mph 41.4 mph N/A   Haze
4:56 PM 89.1 °F 88.8 °F 60.1 °F 38% 29.88 in 10.0 mi ENE 28.8 mph 39.1 mph 0.00 in   Clear
5:11 PM 89.6 °F 88.9 °F 59.0 °F 36% 29.93 in 10.0 mi East 27.6 mph 36.8 mph N/A Thunderstorm Clear
5:25 PM 89.6 °F 88.1 °F 57.2 °F 33% 29.95 in 10.0 mi East 28.8 mph 39.1 mph N/A   Clear
5:56 PM 87.1 °F 85.7 °F 55.9 °F 35% 29.93 in 10.0 mi East 20.7 mph 32.2 mph N/A   Partly Cloudy
6:56 PM 86.0 °F 84.5 °F 55.0 °F 35% 29.91 in 10.0 mi East 20.7 mph - N/A   Partly Cloudy
7:56 PM 84.0 °F 83.3 °F 57.0 °F 40% 29.93 in 10.0 mi ENE 11.5 mph - N/A   Clear
8:56 PM 82.9 °F 82.0 °F 55.0 °F 38% 29.95 in 10.0 mi ENE 6.9 mph - N/A   Clear
9:56 PM 84.0 °F 83.0 °F 55.9 °F 38% 29.94 in 10.0 mi ENE 15.0 mph - N/A   Clear
10:56 PM 82.9 °F 82.1 °F 55.9 °F 39% 29.92 in 10.0 mi East 10.4 mph - N/A   Clear
11:56 PM 82.9 °F 82.1 °F 55.9 °F 39% 29.93 in 10.0 mi ENE 9.2 mph - N/A   Clear